Tracking 30918 objects as of 2-Jul-2025
HD Live streaming from Space Station
objects crossing your sky now

COSMOS 886 DEB

Track COSMOS 886 DEB now!
10-day predictions


NORAD ID: 14503
Int'l Code: 1976-126BQ
Perigee: 757.9 km
Apogee: 2,338.5 km
Inclination: 65.9 °
Period: 116.9 minutes
Semi major axis: 7919 km
RCS: 0.0162 m2 (small)
Launch date: December 27, 1976
Source: Commonwealth of Independent States (former USSR) (CIS)
Launch site: TYURATAM MISSILE AND SPACE COMPLEX (TTMTR)

Note: This is SATELLITE DEBRIS
Your satellite tracking list
NOAA 16 DEB
Track 1 satellite(s)




NASA's NSSDC Master Catalog

Two Line Element Set (TLE):
1 14503U 76126BQ  25182.89152679 -.00000193  00000-0 -20607-3 0  9993
2 14503  65.8601 346.6704 0997993  19.7942 343.9056 12.31913820530254
Source of the keplerian elements: AFSPC